Weather History for Dumas, TX

Change the Weather History Date:

Sunday, January 13, 2013

  Actual Average (KBGD) Record (KBGD)
Temperature  
Mean Temperature 17 °F 38 °F  
Max Temperature 26 °F 51 °F 75 °F (1952)
Min Temperature 8 °F 26 °F -7 °F (1963)
Degree Days  
Heating Degree Days 48 27  
Month to date heating degree days 355  
Since 1 July heating degree days 1892  
Cooling Degree Days 0 0  
Month to date cooling degree days 0  
Year to date cooling degree days 0  
Moisture  
Dew Point 11 °F    
Average Humidity 74    
Maximum Humidity 86    
Minimum Humidity 51    
Precipitation  
Precipitation 0.00 in 0.01 in 0.07 in (1951)
Month to date precipitation 0.20  
Year to date precipitation 0.20  
Snow  
Snow 0.00 in - 1.10 in (1979)
Month to date snowfall  
Since 1 July snowfall  
Snow Depth -    
Sea Level Pressure  
Sea Level Pressure 30.12 in    
Wind  
Wind Speed 5 mph (ENE)    
Max Wind Speed 12 mph    
Max Gust Speed -    
Visibility 10 miles    
Events Snow    
T = Trace of Precipitation, MM = Missing Value Source: NWS Daily Summary

Daily Weather History Graph

Daily Weather History Graph

Search for Another Location

Airport:

Trip Planner

Search our weather history database for the weather conditions in past years. The results will help you decide how hot, cold, wet, or windy it might be!

Date:

Astronomy

Jan. 13, 2013 Rise Set
Actual Time 7:58 AM CST 5:56 PM CST
Civil Twilight 7:30 AM CST 6:24 PM CST
Nautical Twilight 6:58 AM CST 6:55 PM CST
Astronomical Twilight 6:27 AM CST 7:26 PM CST
Moon 9:03 AM CST (1/13) 8:30 PM CST (1/13)
Length of Visible Light 10h 53m
Length of Day
9h 58m
Waxing Crescent, 5% of the Moon is Illuminated
Jan 13
Waxing Crescent
Jan 18
First Quarter
Jan 26
Full
Feb 3
Last Quarter
Feb 10
New

Hourly Weather History & Observations

Time (CST) Temp. Windchill Dew Point Humidity Pressure Visibility Wind Dir Wind Speed Gust Speed Precip Events Conditions
12:15 AM 17.6 °F 8.2 °F 10.4 °F 73% 30.03 in 10.0 mi NNE 6.9 mph - N/A   Scattered Clouds
12:35 AM 17.6 °F 8.2 °F 10.4 °F 73% 30.04 in 10.0 mi North 6.9 mph - N/A   Scattered Clouds
12:55 AM 17.6 °F 6.4 °F 10.4 °F 73% 30.05 in 10.0 mi North 9.2 mph - N/A   Mostly Cloudy
1:15 AM 17.6 °F 8.2 °F 10.4 °F 73% 30.07 in 10.0 mi North 6.9 mph - N/A   Scattered Clouds
1:35 AM 17.6 °F 7.3 °F 10.4 °F 73% 30.07 in 10.0 mi NE 8.1 mph - N/A   Scattered Clouds
1:55 AM 17.6 °F 5.0 °F 10.4 °F 73% 30.07 in 3.0 mi NE 11.5 mph - N/A Snow Light Snow
2:15 AM 17.6 °F 6.4 °F 10.4 °F 73% 30.08 in 3.0 mi NE 9.2 mph - N/A Snow Light Snow
2:35 AM 15.8 °F 6.1 °F 12.2 °F 86% 30.11 in 5.0 mi NNE 6.9 mph - N/A Snow Light Snow
3:15 AM 15.8 °F 8.6 °F 12.2 °F 86% 30.11 in 4.0 mi NE 4.6 mph - N/A Snow Light Snow
3:35 AM 15.8 °F 8.6 °F 12.2 °F 86% 30.11 in 4.0 mi NE 4.6 mph - N/A Snow Light Snow
3:55 AM 14.0 °F 6.5 °F 10.4 °F 86% 30.10 in 7.0 mi NE 4.6 mph - N/A Snow Light Snow
4:15 AM 14.0 °F 8.2 °F 10.4 °F 86% 30.11 in 10.0 mi NNE 3.5 mph - N/A Snow Light Snow
4:35 AM 12.2 °F 6.1 °F 8.6 °F 85% 30.10 in 10.0 mi NNE 3.5 mph - N/A   Scattered Clouds
4:55 AM 12.2 °F 6.1 °F 8.6 °F 85% 30.11 in 10.0 mi North 3.5 mph - N/A   Mostly Cloudy
5:15 AM 14.0 °F 5.1 °F 10.4 °F 86% 30.10 in 10.0 mi North 5.8 mph - N/A   Mostly Cloudy
5:35 AM 14.0 °F 6.5 °F 10.4 °F 86% 30.10 in 10.0 mi NNE 4.6 mph - N/A   Mostly Cloudy
5:55 AM 14.0 °F 6.5 °F 8.6 °F 79% 30.10 in 10.0 mi NNE 4.6 mph - N/A   Scattered Clouds
6:15 AM 12.2 °F 4.3 °F 8.6 °F 85% 30.11 in 10.0 mi North 4.6 mph - N/A   Mostly Cloudy
6:35 AM 10.4 °F 4.0 °F 6.8 °F 85% 30.11 in 10.0 mi North 3.5 mph - N/A   Mostly Cloudy
6:55 AM 12.2 °F 6.1 °F 8.6 °F 85% 30.12 in 10.0 mi NNE 3.5 mph - N/A   Scattered Clouds
7:15 AM 10.4 °F 2.2 °F 6.8 °F 85% 30.13 in 10.0 mi North 4.6 mph - N/A   Clear
7:35 AM 8.6 °F 0.1 °F 5.0 °F 85% 30.14 in 10.0 mi North 4.6 mph - N/A   Clear
7:55 AM 10.4 °F 4.0 °F 6.8 °F 85% 30.14 in 10.0 mi North 3.5 mph - N/A   Clear
8:15 AM 8.6 °F 0.1 °F 5.0 °F 85% 30.14 in 10.0 mi North 4.6 mph - N/A   Clear
8:35 AM 10.4 °F 4.0 °F 5.0 °F 79% 30.15 in 10.0 mi NNW 3.5 mph - N/A   Clear
8:55 AM 12.2 °F - 6.8 °F 79% 30.16 in 10.0 mi Calm Calm - N/A   Clear
9:15 AM 12.2 °F - 8.6 °F 85% 30.16 in 10.0 mi Calm Calm - N/A   Clear
9:35 AM 14.0 °F - 10.4 °F 86% 30.17 in 10.0 mi Calm Calm - N/A   Clear
9:55 AM 15.8 °F - 10.4 °F 79% 30.18 in 10.0 mi Calm Calm - N/A   Clear
10:15 AM 17.6 °F 10.7 °F 10.4 °F 73% 30.18 in 10.0 mi North 4.6 mph - N/A   Clear
10:35 AM 17.6 °F 12.3 °F 10.4 °F 73% 30.18 in 10.0 mi North 3.5 mph - N/A   Clear
10:55 AM 17.6 °F 10.7 °F 10.4 °F 73% 30.18 in 10.0 mi North 4.6 mph - N/A   Clear
11:15 AM 19.4 °F 14.3 °F 10.4 °F 68% 30.17 in 10.0 mi North 3.5 mph - N/A   Clear
11:35 AM 19.4 °F - 10.4 °F 68% 30.16 in 10.0 mi Calm Calm - N/A   Clear
11:55 AM 21.2 °F - 10.4 °F 63% 30.15 in 10.0 mi Calm Calm - N/A   Clear
12:15 PM 21.2 °F - 10.4 °F 63% 30.15 in 10.0 mi Calm Calm - N/A   Clear
12:35 PM 21.2 °F - 10.4 °F 63% 30.13 in 10.0 mi Calm Calm - N/A   Clear
12:55 PM 23.0 °F - 10.4 °F 59% 30.12 in 10.0 mi Calm Calm - N/A   Clear
1:15 PM 23.0 °F - 10.4 °F 59% 30.11 in 10.0 mi Calm Calm - N/A   Clear
1:35 PM 23.0 °F - 10.4 °F 59% 30.11 in 10.0 mi Calm Calm - N/A   Clear
1:55 PM 24.8 °F 20.5 °F 10.4 °F 54% 30.10 in 10.0 mi North 3.5 mph - N/A   Clear
2:15 PM 23.0 °F - 10.4 °F 59% 30.10 in 10.0 mi Calm Calm - N/A   Scattered Clouds
2:35 PM 24.8 °F - 12.2 °F 59% 30.09 in 10.0 mi Calm Calm - N/A   Scattered Clouds
2:55 PM 26.6 °F - 12.2 °F 55% 30.10 in 10.0 mi Calm Calm - N/A   Clear
3:15 PM 26.6 °F 22.6 °F 12.2 °F 55% 30.10 in 10.0 mi ESE 3.5 mph - N/A   Clear
3:35 PM 26.6 °F 22.6 °F 10.4 °F 51% 30.10 in 10.0 mi ENE 3.5 mph - N/A   Clear
3:55 PM 26.6 °F 20.0 °F 10.4 °F 51% 30.09 in 10.0 mi East 5.8 mph - N/A   Clear
4:15 PM 26.6 °F 18.2 °F 12.2 °F 55% 30.10 in 10.0 mi ESE 8.1 mph - N/A   Clear
4:35 PM 26.6 °F 19.1 °F 12.2 °F 55% 30.10 in 10.0 mi East 6.9 mph - N/A   Clear
4:55 PM 26.6 °F 16.8 °F 10.4 °F 51% 30.11 in 10.0 mi ESE 10.4 mph - N/A   Scattered Clouds
5:15 PM 26.6 °F 18.2 °F 12.2 °F 55% 30.11 in 10.0 mi ESE 8.1 mph - N/A   Scattered Clouds
5:35 PM 23.0 °F 13.9 °F 12.2 °F 63% 30.11 in 10.0 mi ESE 8.1 mph - N/A   Clear
5:55 PM 23.0 °F 14.7 °F 12.2 °F 63% 30.12 in 10.0 mi SE 6.9 mph - N/A   Scattered Clouds
6:15 PM 21.2 °F 12.6 °F 12.2 °F 68% 30.12 in 10.0 mi ESE 6.9 mph - N/A   Clear
6:35 PM 21.2 °F 13.6 °F 12.2 °F 68% 30.13 in 10.0 mi ESE 5.8 mph - N/A   Clear
6:55 PM 19.4 °F 7.9 °F 12.2 °F 74% 30.14 in 10.0 mi ESE 10.4 mph - N/A   Clear
7:15 PM 19.4 °F 7.9 °F 14.0 °F 80% 30.15 in 10.0 mi ESE 10.4 mph - N/A   Clear
7:35 PM 19.4 °F 9.5 °F 14.0 °F 80% 30.15 in 10.0 mi ESE 8.1 mph - N/A   Clear
7:55 PM 19.4 °F 9.5 °F 14.0 °F 80% 30.15 in 10.0 mi SE 8.1 mph - N/A   Clear
8:15 PM 19.4 °F 9.5 °F 14.0 °F 80% 30.15 in 10.0 mi ESE 8.1 mph - N/A   Clear
8:35 PM 19.4 °F 9.5 °F 14.0 °F 80% 30.15 in 10.0 mi ESE 8.1 mph - N/A   Clear
8:55 PM 17.6 °F 8.2 °F 14.0 °F 86% 30.15 in 10.0 mi ESE 6.9 mph - N/A   Clear
9:15 PM 17.6 °F 8.2 °F 14.0 °F 86% 30.15 in 10.0 mi ESE 6.9 mph - N/A   Clear
9:35 PM 17.6 °F 8.2 °F 14.0 °F 86% 30.15 in 10.0 mi ESE 6.9 mph - N/A   Clear
9:55 PM 17.6 °F 9.3 °F 14.0 °F 86% 30.16 in 10.0 mi ESE 5.8 mph - N/A   Clear
10:35 PM 17.6 °F 9.3 °F 12.2 °F 79% 30.17 in 10.0 mi East 5.8 mph - N/A   Clear
10:55 PM 17.6 °F 8.2 °F 12.2 °F 79% 30.17 in 10.0 mi East 6.9 mph - N/A   Clear
11:15 PM 17.6 °F 8.2 °F 12.2 °F 79% 30.16 in 10.0 mi East 6.9 mph - N/A   Clear
11:35 PM 17.6 °F 8.2 °F 12.2 °F 79% 30.17 in 10.0 mi East 6.9 mph - N/A   Clear
11:55 PM 17.6 °F 9.3 °F 12.2 °F 79% 30.17 in 10.0 mi East 5.8 mph - N/A   Clear